DW5657 Weather Reports


Display with metric or nautical units.
time (UTC)temp
F
wind
direction
speed
MPH
gust
MPH
rain 1hr
in
rain 24hr
in
rain mn
in
humidity
%
barometer
mb
20260502170203 54 55 3.0 7.0 0.00 0.00 0.00 44 1017.3
20260502163704 53 10 2.0 6.0 0.00 0.00 0.00 47 1017.5
20260502163203 53 95 1.0 6.0 0.00 0.00 0.00 47 1017.6
20260502162703 53 35 2.0 6.0 0.00 0.00 0.00 46 1017.7
20260502162203 53 16 2.0 6.0 0.00 0.00 0.00 46 1017.7
20260502161703 53 99 2.0 6.0 0.00 0.00 0.00 47 1017.7
20260502161203 53 65 2.0 5.0 0.00 0.00 0.00 47 1017.8
20260502160703 53 122 2.0 6.0 0.00 0.00 0.00 47 1017.8
20260502160203 53 108 1.0 5.0 0.00 0.00 0.00 49 1017.8
20260502151705 51 137 0.0 2.0 0.00 0.00 0.00 50 1018.0
20260502151205 51 127 2.0 6.0 0.00 0.00 0.00 50 1018.0
20260502150703 51 142 0.0 2.0 0.00 0.00 0.00 50 1018.1
20260502150204 50 108 1.0 5.0 0.00 0.00 0.00 52 1018.0
20260502130203 44 187 1.0 3.0 0.00 0.01 0.00 64 1017.7
20260502123204 42 8 0.0 0.0 0.00 0.01 0.00 71 1017.6
20260502122703 42 6 0.0 0.0 0.00 0.01 0.00 72 1017.7
20260502121703 41 280 0.0 0.0 0.00 0.01 0.00 73 1017.6
20260502121203 41 194 0.0 0.0 0.00 0.01 0.00 73 1017.6
20260502120204 41 216 0.0 0.0 0.00 0.01 0.00 74 1017.6
20260502115703 40 316 0.0 1.0 0.00 0.01 0.00 75 1017.6
20260502114703 40 237 0.0 0.0 0.00 0.01 0.00 78 1017.5
20260502114203 40 238 0.0 0.0 0.00 0.01 0.00 79 1017.4
20260502113703 40 255 0.0 0.0 0.00 0.01 0.00 78 1017.4
20260502112703 40 0 0.0 0.0 0.00 0.01 0.00 78 1017.2
20260502112204 40 0 0.0 0.0 0.00 0.01 0.00 79 1017.1
20260502111703 40 0 0.0 0.0 0.00 0.01 0.00 79 1017.0
20260502111205 40 0 0.0 0.0 0.00 0.01 0.00 79 1016.8
20260502110703 39 0 0.0 0.0 0.00 0.01 0.00 78 1016.8
20260502110203 39 0 0.0 0.0 0.00 0.01 0.00 78 1017.0
20260502105703 39 0 0.0 0.0 0.00 0.01 0.00 78 1017.0
20260502105203 39 0 0.0 0.0 0.00 0.01 0.00 78 1017.0
20260502104703 39 0 0.0 0.0 0.00 0.01 0.00 78 1017.0
20260502104205 39 0 0.0 0.0 0.00 0.01 0.00 78 1017.0
20260502103705 39 0 0.0 0.0 0.00 0.01 0.00 79 1016.9
20260502103203 39 0 0.0 0.0 0.00 0.01 0.00 79 1017.0
20260502102703 38 0 0.0 0.0 0.00 0.01 0.00 79 1017.0
20260502102203 38 0 0.0 0.0 0.00 0.01 0.00 79 1016.9
20260502101204 38 0 0.0 0.0 0.00 0.01 0.00 80 1016.8
20260502100703 38 0 0.0 0.0 0.00 0.01 0.00 80 1016.8
20260502100204 38 0 0.0 0.0 0.00 0.01 0.00 80 1016.9
20260502091203 39 0 0.0 0.0 0.00 0.01 0.00 78 1016.8
20260502090703 39 0 0.0 0.0 0.00 0.01 0.00 78 1016.9
20260502090204 39 0 0.0 0.0 0.00 0.01 0.00 78 1016.8
20260502071204 41 0 0.0 0.0 0.00 0.01 0.00 73 1016.6
20260502070703 41 0 0.0 0.0 0.00 0.01 0.00 73 1016.5
20260502070203 42 0 0.0 0.0 0.00 0.01 0.00 74 1016.5
20260502065704 42 0 0.0 0.0 0.00 0.01 0.00 74 1016.5
20260502064203 42 0 0.0 0.0 0.00 0.01 0.00 74 1016.7
20260502063204 42 0 0.0 0.0 0.00 0.01 0.00 75 1016.9
20260502062703 42 0 0.0 0.0 0.00 0.01 0.00 76 1016.9
20260502062204 42 0 0.0 0.0 0.00 0.01 0.00 76 1017.0
20260502061704 42 0 0.0 0.0 0.00 0.01 0.00 77 1017.1
20260502061203 42 0 0.0 0.0 0.00 0.01 0.00 77 1017.1
20260502060704 42 0 0.0 0.0 0.00 0.01 0.00 78 1017.2
20260502060203 42 0 0.0 0.0 0.00 0.01 0.00 78 1017.2
20260502055704 42 0 0.0 0.0 0.00 0.01 0.00 78 1017.2
20260502055203 42 0 0.0 0.0 0.00 0.01 0.00 79 1017.2
20260502054703 42 0 0.0 0.0 0.00 0.01 0.00 79 1017.2
20260502054203 42 0 0.0 0.0 0.00 0.01 0.00 79 1017.2
20260502053703 42 0 0.0 0.0 0.00 0.01 0.00 79 1017.2
20260502053203 42 0 0.0 0.0 0.00 0.01 0.00 79 1017.1
20260502052704 42 0 0.0 0.0 0.00 0.01 0.00 79 1017.1
20260502052203 42 0 0.0 0.0 0.00 0.01 0.00 79 1017.2
20260502051703 42 0 0.0 0.0 0.00 0.01 0.00 79 1017.1
20260502050703 42 0 0.0 0.0 0.00 0.01 0.00 79 1017.2
20260502050203 42 0 0.0 0.0 0.00 0.01 0.00 78 1017.1
20260502045704 42 0 0.0 0.0 0.00 0.01 0.00 78 1017.1
20260502045203 42 0 0.0 0.0 0.00 0.01 0.00 78 1017.1
20260502044703 42 0 0.0 0.0 0.00 0.01 0.00 78 1017.1
20260502044204 42 0 0.0 0.0 0.00 0.01 0.00 78 1017.1
20260502043203 42 0 0.0 0.0 0.00 0.01 0.00 77 1017.2
20260502042203 43 0 0.0 0.0 0.00 0.01 0.00 78 1017.2
20260502041703 43 0 0.0 0.0 0.00 0.01 0.00 76 1017.2
20260502040705 43 0 0.0 0.0 0.00 0.01 0.00 76 1017.1
20260502040203 44 0 0.0 0.0 0.00 0.01 0.00 76 1017.0
20260502035203 44 0 0.0 0.0 0.00 0.01 0.01 75 1017.2
20260502034704 44 0 0.0 0.0 0.00 0.01 0.01 75 1017.1
20260502033704 44 0 0.0 0.0 0.00 0.01 0.01 74 1017.3
20260502033203 44 0 0.0 0.0 0.00 0.01 0.01 74 1017.3
20260502032704 45 0 0.0 0.0 0.00 0.01 0.01 72 1017.3
20260502032204 45 0 0.0 0.0 0.00 0.01 0.01 71 1017.2
20260502031703 45 0 0.0 0.0 0.00 0.01 0.01 71 1017.2
20260502031203 45 0 0.0 0.0 0.00 0.01 0.01 70 1017.2
20260502030703 45 0 0.0 0.0 0.00 0.01 0.01 70 1017.2
20260502030203 46 0 0.0 0.0 0.00 0.01 0.01 69 1017.1
20260502025703 46 0 0.0 0.0 0.00 0.01 0.01 69 1017.1
20260502025203 46 0 0.0 0.0 0.00 0.01 0.01 70 1017.1
20260502024204 46 0 0.0 0.0 0.00 0.01 0.01 70 1017.0
20260502023704 46 0 0.0 0.0 0.00 0.01 0.01 69 1017.0
20260502022703 46 0 0.0 0.0 0.00 0.01 0.01 69 1016.8
20260502022205 46 0 0.0 0.0 0.00 0.01 0.01 69 1016.9
20260502021703 46 0 0.0 0.0 0.00 0.01 0.01 69 1016.8
20260502021205 46 0 0.0 0.0 0.00 0.01 0.01 69 1016.8
20260502020204 46 0 0.0 0.0 0.00 0.01 0.01 69 1016.7
20260502015703 47 0 0.0 0.0 0.00 0.01 0.01 69 1016.4
20260502015203 47 0 0.0 0.0 0.00 0.01 0.01 69 1016.3
20260502014703 47 0 0.0 0.0 0.00 0.01 0.01 68 1016.2
20260502014204 47 0 0.0 0.0 0.00 0.01 0.01 68 1016.2
20260502013704 47 0 0.0 0.0 0.00 0.01 0.01 67 1016.2
20260502013203 47 0 0.0 0.0 0.00 0.01 0.01 67 1016.1
20260502012704 48 0 0.0 0.0 0.00 0.01 0.01 67 1016.1
20260502012203 48 0 0.0 0.0 0.00 0.01 0.01 67 1016.1
20260502011704 48 0 0.0 0.0 0.00 0.01 0.01 67 1015.8
20260502011203 48 0 0.0 0.0 0.00 0.01 0.01 67 1015.9
20260502010703 49 0 0.0 0.0 0.00 0.01 0.01 66 1015.9
20260502005704 49 0 0.0 0.0 0.00 0.01 0.01 65 1015.7
20260502005204 49 0 0.0 0.0 0.00 0.01 0.01 65 1015.6
20260502004703 50 0 0.0 0.0 0.00 0.01 0.01 64 1015.3
20260502004205 50 0 0.0 0.0 0.00 0.01 0.01 63 1015.2
20260502003704 50 0 0.0 0.0 0.00 0.01 0.01 62 1015.0
20260502003204 50 0 0.0 0.0 0.00 0.01 0.01 61 1014.8
20260502002704 51 0 0.0 0.0 0.00 0.01 0.01 61 1014.7
20260502002203 51 0 0.0 0.0 0.00 0.01 0.01 61 1014.6
20260502001204 51 0 0.0 0.0 0.00 0.01 0.01 60 1014.6
20260502000704 51 0 0.0 0.0 0.00 0.01 0.01 60 1014.6
20260502000204 52 188 0.0 0.0 0.00 0.01 0.01 60 1014.6
20260501235704 52 174 0.0 0.0 0.00 0.01 0.01 60 1014.8
20260501235203 52 172 0.0 2.0 0.00 0.01 0.01 58 1014.8
20260501234704 52 172 0.0 2.0 0.00 0.01 0.01 57 1014.8
20260501234203 52 29 0.0 2.0 0.00 0.01 0.01 58 1014.8
20260501232705 53 142 0.0 3.0 0.00 0.01 0.01 57 1014.8
20260501232204 53 169 1.0 5.0 0.00 0.01 0.01 56 1014.7
20260501231704 53 14 0.0 3.0 0.00 0.01 0.01 55 1014.6
20260501231204 54 114 2.0 5.0 0.00 0.01 0.01 54 1014.6
20260501230703 54 157 1.0 6.0 0.00 0.01 0.01 52 1014.7
20260501230203 54 93 1.0 6.0 0.00 0.01 0.01 52 1014.5
20260501225703 54 115 1.0 3.0 0.00 0.01 0.01 52 1014.5
20260501225203 54 76 0.0 2.0 0.00 0.01 0.01 52 1014.5
20260501224704 54 98 1.0 3.0 0.00 0.01 0.01 53 1014.5
20260501224204 54 67 0.0 2.0 0.00 0.01 0.01 54 1014.5
20260501223703 54 25 0.0 2.0 0.00 0.01 0.01 54 1014.5
20260501223203 54 143 1.0 9.0 0.00 0.01 0.01 54 1014.5
20260501222204 54 106 1.0 7.0 0.00 0.01 0.01 54 1014.6
20260501221704 54 136 0.0 3.0 0.00 0.01 0.01 55 1014.7
20260501221203 54 113 1.0 2.0 0.00 0.01 0.01 55 1014.7
20260501220704 54 132 0.0 3.0 0.00 0.01 0.01 56 1014.7
20260501220203 54 13 0.0 3.0 0.00 0.01 0.01 58 1014.6
20260501215704 54 37 1.0 3.0 0.00 0.01 0.01 55 1014.6
20260501215203 53 122 1.0 3.0 0.00 0.01 0.01 55 1014.6
20260501214704 54 138 1.0 7.0 0.00 0.01 0.01 55 1014.7
20260501213705 53 137 0.0 5.0 0.00 0.01 0.01 55 1014.6
20260501212703 54 130 2.0 6.0 0.00 0.01 0.01 55 1014.6
20260501211704 55 15 2.0 6.0 0.00 0.01 0.01 57 1014.6
20260501211203 55 87 1.0 3.0 0.00 0.01 0.01 56 1014.6
20260501210703 55 97 1.0 7.0 0.00 0.01 0.01 57 1014.5
20260501210204 55 106 2.0 7.0 0.00 0.01 0.01 58 1014.6
20260501205705 55 331 2.0 5.0 0.00 0.01 0.01 59 1014.5
20260501205203 55 244 1.0 6.0 0.00 0.01 0.01 59 1014.4
20260501204204 55 10 3.0 12.0 0.00 0.01 0.01 59 1014.6
20260501203703 55 297 2.0 6.0 0.00 0.01 0.01 59 1014.5
20260501203205 55 265 2.0 7.0 0.00 0.01 0.01 58 1014.5
20260501202704 55 101 3.0 9.0 0.00 0.01 0.01 59 1014.4
20260501202204 55 111 3.0 8.0 0.00 0.01 0.01 58 1014.3
20260501201704 55 142 2.0 10.0 0.00 0.01 0.01 58 1014.2
20260501201204 55 164 1.0 7.0 0.00 0.01 0.01 57 1014.2
20260501200704 55 154 1.0 7.0 0.00 0.01 0.01 57 1014.2
20260501200204 54 139 1.0 7.0 0.00 0.01 0.01 59 1014.1
20260501195204 54 134 3.0 7.0 0.00 0.01 0.01 59 1014.3
20260501194704 54 138 3.0 12.0 0.00 0.01 0.01 60 1014.2
20260501194203 55 62 2.0 8.0 0.00 0.01 0.01 61 1014.2
20260501193204 54 157 3.0 10.0 0.00 0.01 0.01 61 1014.2
20260501192704 54 132 2.0 6.0 0.00 0.01 0.01 60 1014.2
20260501191703 54 124 3.0 7.0 0.00 0.01 0.01 59 1014.3
20260501185704 54 134 1.0 5.0 0.00 0.01 0.01 62 1014.2
20260501184705 54 95 0.0 2.0 0.00 0.01 0.01 61 1014.2
20260501184203 55 140 2.0 7.0 0.00 0.01 0.01 59 1014.0
20260501183204 55 57 2.0 9.0 0.00 0.01 0.01 60 1013.9
20260501182704 55 106 3.0 6.0 0.00 0.01 0.01 59 1013.8
20260501182204 55 112 3.0 9.0 0.00 0.01 0.01 61 1013.7
20260501181703 55 52 3.0 8.0 0.00 0.01 0.01 60 1013.7
20260501180703 55 85 1.0 9.0 0.00 0.01 0.01 59 1013.5
20260501180204 56 102 2.0 5.0 0.00 0.01 0.01 58 1013.5
20260501175704 56 102 3.0 12.0 0.00 0.01 0.01 61 1013.5
20260501175203 56 113 3.0 12.0 0.00 0.01 0.01 63 1013.5
20260501174704 56 64 3.0 10.0 0.00 0.01 0.01 62 1013.5
20260501174203 55 94 4.0 8.0 0.00 0.01 0.01 62 1013.3
20260501173705 55 103 3.0 8.0 0.00 0.01 0.01 61 1013.3
20260501173204 55 111 4.0 9.0 0.00 0.01 0.01 61 1013.3
20260501172703 55 104 2.0 12.0 0.00 0.01 0.01 64 1013.1
20260501172204 54 95 3.0 12.0 0.00 0.01 0.01 64 1013.1
20260501171703 54 107 1.0 5.0 0.00 0.01 0.01 67 1013.1
20260501171203 53 92 2.0 8.0 0.00 0.01 0.01 68 1013.1